Regional Weather Roundup
Issued by NWS

Home | Current Version | Previous Version | Graphics & Text | Print | Product List | Glossary On
Versions: 1 2 3 4 5 6 7 8 9 10 11 12 13 14 15 16 17 18 19 20 21 22 23 24 25 26 27 28 29 30 31 32 33 34 35 36 37 38 39 40 41 42 43 44 45 46 47 48 49 50
000
ASUS43 KIND 160809
RWRIN

WEATHER ROUNDUP FOR INDIANA
NATIONAL WEATHER SERVICE INDIANAPOLIS IN
400 AM EDT TUE SEP 16 2014

NOTE: "FAIR" INDICATES FEW OR NO CLOUDS BELOW 12,000 FEET WITH NO
SIGNIFICANT WEATHER AND/OR OBSTRUCTIONS TO VISIBILITY.

* - STATION DOES NOT REPORT WEATHER SUCH AS PRECIPITATION OR FOG.

+ - STATION NOT QUALITY CONTROLLED BY THE NATIONAL WEATHER SERVICE.
    USE DATA WITH CAUTION...ESPECIALLY DEWPOINT AND RELATIVE
    HUMIDITY OBSERVATIONS.

INZ001>003-010>013-019-020-160900-
NORTHWEST INDIANA

CITY           SKY/WX    TMP DP  RH WIND       PRES   REMARKS
GARY /AIRPORT/ CLOUDY    56  51  82 NW8       30.18S
KNOX *+        CLOUDY    53  51  92 N5        30.15S
LA PORTE +     CLEAR     51  51 100 NE3       30.17R
MICHIGAN CITY+ CLOUDY    52  52 100 NE3       30.17S
MONTICELLO +   CLOUDY    52  52 100 NW3       30.14S FOG
RENSSELAER +     N/A     52  52 100 NW3       30.16S FOG
VALPARAISO     CLEAR     51  49  92 CALM      30.17S

$$

LMZ046-743>745-160900-
SOUTHERN LAKE MICHIGAN

STATION/POSITION TIME  TEMP WIND        PRES
                       AIR  DIR/SP/G
                 (UTC) (F)  (DEG/KT/KT) (MB)
MICHIGAN CITY    0800   58  350/ 14/ 18   N/A

$$

INZ004-005-014>016-021>024-160900-
NORTH CENTRAL INDIANA

CITY           SKY/WX    TMP DP  RH WIND       PRES   REMARKS
GOSHEN         MOCLDY    53  50  89 NW6       30.16R FOG
LOGANSPORT +   FOG       48  46  93 CALM      30.15S VSB<1/4
PERU/GRISSOM   CLOUDY    52 N/A N/A NW5       30.14S FOG
ROCHESTER +    CLOUDY    54  54 100 N3        30.15S FOG
SOUTH BEND     CLOUDY    53  50  89 NE5       30.17S
WARSAW +       FOG       50  50 100 N7        30.14F VSB 1/2

$$

INZ006>009-017-018-025>027-160900-
NORTHEAST INDIANA

CITY           SKY/WX    TMP DP  RH WIND       PRES   REMARKS
ANGOLA *+      CLOUDY    52  37  58 N5        30.14S
AUBURN +         N/A     54  52  94 W3        30.15S FOG
FORT WAYNE     CLOUDY    52  51  97 N9        30.14S FOG
HUNTINGTON +   FOG       51  51 100 CALM      30.13F VSB 1

$$

INZ028-029-035-036-043>045-051>053-160900-
WEST CENTRAL INDIANA

CITY           SKY/WX    TMP DP  RH WIND       PRES   REMARKS
GREENCASTLE +  CLOUDY    54  54 100 N6        30.14R
LAFAYETTE      CLOUDY    52  52 100 CALM      30.15S FOG
TERRE HAUTE    CLOUDY    56  54  93 N7        30.14S

$$

INZ030>032-037>040-046>048-054>057-064-065-160900-
CENTRAL INDIANA

CITY           SKY/WX    TMP DP  RH WIND       PRES   REMARKS
CP ATTERBURY + CLOUDY    55  54  94 N3        30.12S
FRANKFORT +    CLOUDY   N/A N/A N/A N9        30.15S HAZE
INDIANAPOLIS   CLOUDY    56  53  90 N9        30.12R
-EAGLE CREEK   CLOUDY    56  52  86 N8        30.12S
KOKOMO *+      CLOUDY    52  50  93 N8        30.14S VSB 3/4
MARION +       CLOUDY    51  51  98 N6        30.14S FOG
MT COMFORT *+  CLOUDY    55 N/A N/A N6        30.13R
SHELBYVILLE    CLOUDY    58  55  90 N5        30.11S
ZIONSVILLE +   CLOUDY    55  52  90 N7        30.14S

$$

INZ033-034-041-042-049-050-058-059-160900-
EAST CENTRAL INDIANA

CITY           SKY/WX    TMP DP  RH WIND       PRES   REMARKS
MUNCIE         MOCLDY    54  51  90 N8        30.12S

$$

INZ060-061-067>069-081>083-085>088-160900-
SOUTHWEST INDIANA

CITY           SKY/WX    TMP DP  RH WIND       PRES   REMARKS
EVANSVILLE     CLOUDY    62  59  90 N8        30.12R
WASHINGTON +   CLOUDY    58  58 100 N9        30.11S FOG

$$

INZ062-063-066-070>080-084-089>092-160900-
SOUTH CENTRAL AND SOUTHEAST INDIANA

CITY           SKY/WX    TMP DP  RH WIND       PRES   REMARKS
BLOOMINGTON    CLOUDY    58  55  90 N9        30.12R

$$



USA.gov is the U.S. government's official web portal to all federal, state and local government web resources and services.